Showing default

WILDFIRE 2, 57767

Orbit data source: Space-Track

WILDFIRE 2, 57767 is a payload satellite owned by SDA (US) in LEO that was launched on Sat, 02 Sep 2023 UTC via an FALCON 9 launch vehicle from the Air Force Western Test Range (AFWTR). Payload-class satellites include a variety of spacecraft equipped with specific instruments for various scientific and technological missions. These include communications satellites like Starlink; space stations such as the ISS; scientific satellites like the Hubble; Earth observation satellites from companies like Planet Labs, Umbra, and HawkEye 360; GPS; miniature CubeSats for education and research; and military/defense satellites.

Loading next visibility...
Identifier
57767, 2023-133L
Orbit
LEO
Country
Flag of USUS
Related business
Manufacturer
TYVAK/LMSSD
Mission
Operational Defense Communications
Bus & Motor
MAVERICKS, Unknown motor
Mass
~300 kg wet, ~300 kg dry
Launch date (UTC)
2023-09-02 (2 years ago)
Launch vehicle
FALCON 9
Launch site
Air Force Western Test Range (AFWTR)
Object type
Payload
Rocket body
Debris
Shape & HBR
Box + 2 Pan, 1.3 m
Radar Cross Section
0.713 m², Large (>1 m²)

Expand to show TLE details & history
Last TLE update: 9 hours ago

TLE from 9 hours ago
0 WILDFIRE 2
1 57767U 23133L   25346.98447324  .00000114  00000-0  90473-4 0  9998
2 57767  80.9948 186.2024 0005771 163.9629 196.1711 13.85166850115221
Epoch: 2025-12-12T23:37Z
TLE epoch observation values (Epoch: 2025-12-12T23:37:38.487Z)
Latitude
-0.00005°
Longitude
109.87378°
Altitude
952.535 km
Speed
7.373 km/s
True Right ascension
12h 24m 48s
True Declination
0° 00' 00"
Sunlit
Object was in daylight at epoch
Visualization orbit readout
Latitude
Unknown
Longitude
Unknown
Altitude
Unknown
Speed
Unknown
Apparent Right ascension
Unknown
Apparent Declination
Unknown
Sunlit
N/A
Visualization observer readout
Local Sidereal Time
07:31:22
Azimuth
Unknown
Elevation
Unknown
Doppler factor
Unknown
Orbital elements
Apogee altitude
947.062 km
Perigee altitude
938.612 km
Semi-major axis
7,320.974 km
Eccentricity
0.00058
Inclination
80.9948°
RAAN
186.2024°
Arg. of periapsis
163.9629°
True anomaly
196.15269°
Mean anomaly
196.1711°
Eccentric anomaly
196.1619°
Mean motion
3.46489 °/min
Orbital period
103.9 mins
BSTAR
0.000090473
Loading maneuver chart data...
Computing Atmospheric mass density...
Loading historical data...
Loading historical data...
Loading historical data...
Loading historical data...
Loading historical data...
Loading historical data...
Loading historical data...

Documentation

Showing up to 5 results
|